Powrót do katalogu

SL-8 DEB *

AktywnyLEO
NORAD 14810·DEBRIS·🇷🇺 Russia

Wystrzelony Aug 28, 1981 z Plesetsk Cosmodrome

Loading…

Następne Przeloty (najbliższe 24 godziny)

TLE

ŚwieżeSource: Space-Track

Epoka: Sep 14, 2026, 04:34 UTC

1 14810U 81084D   26257.19031419  .00001077  00000-0  25649-3 0  9999
2 14810  73.9492  55.6091 0015459 176.5374 357.8440 14.54993263282989

Śledź SL-8 DEB * w czasie rzeczywistym z AllMySat

Download on the App Store